Miscellaneous Local Product
Issued by NWS Hastings, NE

Home | Current Version | Previous Version | Graphics & Text | Print | Product List | Glossary On
Versions: 1 2 3 4 5 6 7 8 9 10 11 12 13 14 15 16 17 18 19 20 21 22 23 24 25 26 27 28 29 30 31 32 33 34 35 36 37 38 39 40 41 42 43 44 45 46 47 48 49 50
000
AXUS43 KGID 171502
MISGRI

GID CWA HOURLY WEATHER ROUNDUP
NATIONAL WEATHER SERVICE HASTINGS NE
900 AM CST WED DEC 17 2014

NOTE: "FAIR" INDICATES FEW OR NO CLOUDS BELOW 12,000 FEET WITH NO
SIGNIFICANT WEATHER AND/OR OBSTRUCTIONS TO VISIBILITY.

...SOUTH CENTRAL NEBRASKA...

CITY           SKY/WX    TMP DP  RH WIND       PRES   REMARKS
GRAND ISLAND   CLOUDY    20  17  88 E6        30.29R WCI  12
HASTINGS       CLOUDY    20  17  88 E6        30.26S FOG     WCI  12
KEARNEY        CLOUDY    19  18  93 E8        30.24F WCI   9
ORD            CLOUDY    18  16  92 SE7       30.25F WCI   9
YORK           CLOUDY    23  19  86 E8        30.30S WCI  14
AURORA         CLOUDY    21  19  89 SE3       30.29R
LEXINGTON      CLOUDY    21  20  95 SE7       30.21S FOG     WCI  13
HOLDREGE       CLOUDY    20  19  95 E7        30.22F FOG     WCI  12
HEBRON         CLOUDY    22  18  83 E5        30.31R WCI  16

...NEBRASKA PANHANDLE...

CITY           SKY/WX    TMP DP  RH WIND       PRES   REMARKS
CHADRON        CLOUDY     5   3  91 S3        30.04F FOG
ALLIANCE       CLOUDY    21  19  92 S18       30.01F FOG     WCI   6
SCOTTSBLUFF    CLOUDY    12  10  92 CALM      30.01S FOG
SIDNEY         FOG       19  17  92 S17       30.02S VSB 1/4 WCI   4

...WESTERN AND NORTH CENTRAL NEBRASKA...

CITY           SKY/WX    TMP DP  RH WIND       PRES   REMARKS
VALENTINE      CLOUDY    18  16  92 SE13      30.18S FOG     WCI   5
AINSWORTH      CLOUDY    17  16  93 SE6       30.19S FOG     WCI   9
ONEILL         CLOUDY    18  17  96 SE3       30.26S
BROKEN BOW     CLOUDY    19  18  95 S9        30.20F FOG     WCI   8
IMPERIAL       CLOUDY    22  19  89 S9        30.12F FOG     WCI  12
NORTH PLATTE   CLOUDY    20  18  92 S8        30.17R WCI  10
MCCOOK         CLOUDY    21  19  92 E9        30.18F FOG     WCI  11

...EASTERN NEBRASKA...

CITY           SKY/WX    TMP DP  RH WIND       PRES   REMARKS
NORFOLK        CLOUDY    20  15  81 NE5       30.30F WCI  13
SO SIOUX CITY  PTCLDY    14   9  80 NW3       30.37S
TEKAMAH        MOSUNNY   17  12  80 NW3       30.37R
COLUMBUS       CLOUDY    19  10  68 E7        30.32F WCI  10
ALBION         CLOUDY    19  16  85 CALM      30.28F
OMAHA EPPLEY   PTSUNNY   18  12  77 CALM      30.37S
OFFUTT AFB     MOSUNNY   19  12  73 NE5       30.35F WCI  13
MILLARD        CLOUDY    19  13  74 CALM      30.35F
LINCOLN        CLOUDY    21  15  78 E7        30.35S WCI  12
NEBRASKA CITY  PTSUNNY   20  13  74 NE6       30.34S WCI  12
BEATRICE       CLOUDY    22  17  80 E6        30.33R WCI  14
FALLS CITY     PTSUNNY   20  14  77 E5        30.36R WCI  13

...NORTHERN KANSAS...

CITY           SKY/WX    TMP DP  RH WIND       PRES   REMARKS
GOODLAND       FOG       22  22 100 E10       30.08S VSB 1/4 WCI  11
HILL CITY      CLOUDY    23  20  88 E10       30.21S WCI  12
NORTON         CLOUDY    21  19  93 E9        30.20R FOG     WCI  11
PHILLIPSBURG   CLOUDY    25  25 100 E9        30.25R WCI  15
SMITH CENTER   CLOUDY    21  19  93 E9        30.26S WCI  11
BELOIT         CLOUDY    25  21  86 E5        30.29R WCI  19
HAYS           CLOUDY    25  16  68 E14       30.21R WCI  13
RUSSELL        CLOUDY    25  22  88 E14       30.22R WCI  13
CONCORDIA      CLOUDY    23  20  88 E9        30.29S WCI  13
SALINA         CLOUDY    27  21  78 E9        30.30R WCI  18
TOPEKA         CLOUDY    25  18  74 E7        30.35F WCI  17



USA.gov is the U.S. government's official web portal to all federal, state and local government web resources and services.